Theta_e
317 316 316 325 322 323 330 340 342 344 343 344 344 345 344 341 342 335 335 328 328 330 334 332 331 329 327 326 326 326 326 325 325 325 326 327 327 325 324 324 323 323 323 323 325 333 339 338 334
316 316 325 327 320 322 323 330 341 340 341 343 344 343 342 345 341 336 333 327 327 329 332 332 332 330 329 327 326 326 326 326 325 325 326 328 328 325 324 324 324 325 325 324 324 323 323 334 336
315 319 321 316 315 321 322 328 337 340 343 343 343 342 341 340 338 335 334 327 327 328 332 331 332 331 330 329 327 326 326 326 326 325 326 328 329 327 323 324 325 328 330 323 327 325 324 323 330
319 323 318 315 317 317 321 323 330 333 339 342 342 343 341 341 337 337 336 334 328 328 330 331 331 333 331 330 328 325 325 325 325 325 325 327 330 329 324 324 327 334 328 317 320 327 325 324 324
323 321 312 314 314 314 316 319 320 319 328 343 343 343 342 340 341 337 338 338 330 328 330 331 331 333 333 330 328 326 324 325 325 324 324 326 329 331 324 325 331 324 316 314 315 323 327 326 325
321 315 312 313 314 315 315 319 316 318 338 345 345 345 345 340 340 339 339 339 332 326 330 331 333 334 334 332 329 326 324 324 324 324 324 324 328 331 327 329 326 316 314 313 312 316 324 328 329
317 310 313 314 316 316 317 320 327 342 344 346 346 348 348 343 342 339 339 336 331 327 329 330 333 335 336 335 331 328 326 324 324 324 324 324 325 330 329 330 321 316 315 314 314 314 313 317 324
320 310 316 314 315 317 317 320 321 344 345 347 348 345 345 342 344 342 338 332 327 329 330 331 331 335 336 335 334 330 327 325 325 325 325 324 324 326 332 331 323 317 319 325 329 326 319 319 316
320 313 313 316 317 316 319 316 321 328 347 347 347 345 342 343 346 347 342 331 327 329 332 331 329 331 333 334 333 332 329 326 325 325 325 325 324 326 334 332 328 319 326 328 328 328 328 329 330
315 311 315 314 316 317 318 318 320 321 332 340 341 344 344 346 346 345 345 339 328 329 332 332 331 330 330 331 330 329 329 327 325 325 325 325 324 333 338 336 330 327 326 325 327 325 327 326 331
314 314 313 316 318 318 318 318 320 320 320 322 334 346 345 344 346 345 343 340 335 330 330 331 330 329 330 330 328 327 327 326 325 325 325 325 325 330 337 340 336 334 331 330 326 326 326 323 327
316 316 316 317 319 317 316 318 319 320 322 322 324 335 347 348 347 345 342 341 340 339 331 328 329 328 326 327 328 326 325 325 325 325 325 325 325 325 332 340 341 338 334 332 333 333 328 321 324
315 315 317 317 318 317 317 317 317 320 322 322 322 334 346 347 348 347 345 342 343 341 340 336 334 328 328 326 325 324 324 324 324 324 325 325 325 325 333 340 341 342 341 336 334 333 332 331 326
315 315 315 317 318 318 316 317 318 321 322 322 322 322 336 341 344 347 345 343 343 342 342 341 341 338 331 326 326 325 324 323 324 324 324 324 325 325 328 335 340 342 343 343 339 334 331 328 328
316 315 312 315 316 315 316 315 316 320 320 321 321 322 330 338 339 346 349 348 346 343 342 343 342 337 333 335 328 326 325 324 326 332 325 326 326 326 327 336 337 340 342 343 343 337 332 330 329
314 311 312 313 314 317 317 314 315 322 319 320 321 320 321 331 340 343 349 348 347 344 343 343 342 339 336 335 339 332 325 335 341 339 330 338 338 338 332 335 337 338 341 342 344 338 333 333 327
310 313 313 313 314 316 317 315 316 320 319 319 321 319 321 321 329 341 347 348 349 345 343 342 339 338 338 339 340 339 332 339 342 340 337 341 341 342 341 338 337 337 338 342 344 344 341 335 334
315 314 313 313 314 313 313 313 314 319 317 317 318 321 327 330 328 335 340 344 347 344 343 339 339 337 337 339 340 340 339 343 343 343 342 340 341 343 343 343 342 339 337 341 344 343 342 342 342
314 314 313 314 315 315 314 314 316 317 316 315 318 333 341 341 340 341 343 345 347 344 342 341 337 336 337 340 341 340 340 343 344 345 344 343 343 344 343 343 343 342 341 337 342 345 348 345 344
314 314 314 314 314 313 316 316 316 317 318 318 322 335 343 344 347 346 347 348 347 346 344 341 337 339 339 336 340 341 342 344 347 346 347 347 346 346 345 345 344 344 344 341 339 343 345 346 344
316 316 316 316 317 317 317 315 316 316 321 324 332 334 338 340 342 342 345 346 346 344 342 340 340 338 339 338 342 342 343 347 345 342 345 348 348 348 348 347 346 345 344 344 339 338 342 341 343
318 317 317 318 317 317 317 318 315 316 321 324 324 331 339 339 338 339 340 342 343 344 340 348 348 338 344 345 345 343 342 343 344 348 346 347 347 350 349 348 344 345 346 344 343 335 337 338 340
319 319 318 319 317 316 316 315 315 324 325 324 325 336 340 345 345 344 346 346 347 347 350 353 351 350 351 349 347 349 349 348 345 346 348 347 347 349 350 347 345 344 344 344 343 340 336 336 338
318 318 316 314 313 317 316 315 314 326 325 324 324 333 334 338 339 337 337 342 344 345 345 346 347 351 352 352 350 347 345 347 349 348 344 348 347 345 345 347 347 345 343 342 343 342 342 339 337
315 316 318 319 318 319 319 318 325 325 322 322 323 324 330 332 332 331 329 330 335 338 338 340 341 339 340 341 341 340 341 342 341 341 342 342 343 344 347 348 347 347 346 344 344 343 343 342 340
317 317 317 322 322 321 319 325 328 323 321 320 321 320 322 327 330 330 329 327 327 325 327 331 333 330 330 329 329 330 332 332 334 336 336 338 338 341 341 342 344 345 344 344 345 344 344 342 339
317 318 318 319 320 322 320 327 326 325 322 320 320 319 318 317 317 321 321 327 327 325 326 326 324 323 323 322 322 322 322 320 319 320 322 325 330 334 338 339 339 340 341 341 342 343 344 344 343
319 318 320 316 319 321 322 322 327 329 323 320 319 319 318 315 315 315 315 317 319 320 320 320 320 320 320 320 320 319 318 319 320 321 321 319 317 319 323 327 332 336 340 341 341 341 341 341 341
317 320 319 316 320 325 322 322 326 326 324 320 319 317 317 317 317 315 314 314 315 316 316 317 317 317 317 317 317 317 317 317 317 317 319 322 321 319 314 317 323 328 336 341 340 339 341 339 343
318 320 318 315 316 320 320 320 321 324 323 321 320 320 322 319 319 319 319 319 314 316 316 315 315 314 312 310 312 314 314 314 315 316 317 321 322 321 319 312 316 323 327 338 343 341 341 339 340
Wind_Speed
6 8 7 3 4 5 4 5 3 3 5 10 4 4 3 5 5 4 12 29 31 33 32 29 26 23 21 20 19 19 18 17 16 15 14 13 12 11 10 10 9 8 7 8 8 9 9 9 9
6 5 1 2 4 2 5 5 7 4 3 14 13 10 2 2 6 7 23 32 30 32 32 30 27 24 22 20 19 18 17 16 15 14 13 12 11 10 10 9 8 8 7 7 7 7 8 9 9
5 2 2 4 3 5 4 4 8 6 16 1 5 7 8 11 11 26 25 33 34 33 32 30 28 25 23 21 19 17 16 15 14 13 12 12 11 10 9 9 8 7 6 6 7 7 7 9 10
1 2 3 4 7 5 5 5 10 7 13 13 7 2 5 10 19 20 28 28 36 33 32 30 29 26 24 22 19 17 15 13 13 12 11 10 9 9 8 8 7 5 4 6 8 9 8 8 10
1 2 3 2 4 6 6 13 21 6 7 11 19 6 6 11 14 25 25 28 34 33 34 32 29 26 24 22 19 17 16 14 12 10 10 9 9 8 7 7 6 5 4 6 8 10 10 9 9
2 3 4 3 4 6 7 16 14 11 14 19 9 12 7 11 22 25 26 29 34 31 33 33 30 27 23 21 18 17 15 14 12 11 9 8 8 7 7 7 6 7 7 6 7 9 10 10 9
6 4 4 2 5 6 5 27 7 3 8 8 18 6 7 20 21 22 27 30 34 33 34 33 31 28 24 21 18 17 15 14 12 11 9 8 7 7 7 7 7 8 8 8 8 8 8 9 9
2 4 2 2 2 6 5 19 12 3 3 15 8 4 6 24 22 22 28 30 34 35 35 34 32 30 28 24 21 19 17 15 13 11 9 7 6 7 7 6 8 9 11 11 11 11 11 9 7
3 4 1 3 2 8 19 9 14 3 10 7 8 8 4 27 26 26 31 33 35 36 37 35 33 31 28 25 23 21 19 17 15 12 10 8 6 6 6 8 9 10 13 10 10 9 10 11 8
4 4 7 7 3 6 17 9 17 5 2 7 12 14 7 25 26 32 36 36 38 38 35 34 33 31 29 27 25 23 21 20 17 14 12 10 8 8 9 10 12 11 10 11 8 7 7 6 5
3 5 5 6 15 13 12 21 16 2 0 5 10 14 18 27 25 29 32 33 34 32 34 33 31 30 29 28 26 24 23 20 17 15 13 11 9 9 10 10 11 9 8 8 9 6 2 0 1
1 7 6 10 16 8 5 12 7 8 6 1 10 10 29 30 28 27 29 30 30 28 29 32 33 31 27 26 25 24 23 20 19 16 15 14 12 10 12 11 10 9 7 6 6 6 7 0 8
3 5 9 10 14 12 13 12 10 9 8 3 5 7 31 30 25 27 27 28 29 30 19 25 24 32 29 27 25 25 24 22 19 17 16 15 14 13 13 13 11 9 8 8 7 6 2 1 4
3 8 10 8 11 8 4 6 6 9 10 8 6 9 17 36 28 26 32 34 35 32 32 31 25 27 30 27 26 26 25 21 20 18 17 16 16 16 15 15 12 9 7 9 12 10 7 7 7
5 6 6 4 3 6 6 8 4 13 13 14 12 13 16 28 25 29 28 29 33 38 34 29 29 31 25 14 21 27 24 22 18 17 19 18 18 18 18 16 13 10 8 9 14 15 12 8 9
5 5 6 6 7 5 4 8 12 25 18 21 19 15 17 22 28 29 34 31 35 35 36 32 28 26 25 21 18 21 23 19 14 13 16 15 13 12 15 17 14 11 11 12 11 14 15 10 7
7 2 4 10 6 3 2 10 14 33 24 27 28 14 14 21 26 32 30 31 36 35 36 36 30 23 23 23 20 19 21 20 16 15 17 15 14 14 12 14 13 15 15 14 13 12 12 12 9
4 4 4 6 6 6 7 10 11 30 20 28 21 11 17 23 28 30 32 32 38 38 39 31 25 29 25 19 25 22 20 21 20 22 20 19 17 18 18 15 14 16 19 18 14 14 14 13 14
3 3 5 12 15 3 10 6 13 19 10 11 11 20 24 25 26 31 35 36 39 42 43 32 31 31 27 26 28 26 25 19 21 24 19 23 25 20 20 19 17 16 17 22 20 17 17 18 17
5 5 9 8 11 4 9 10 7 5 6 7 18 27 30 29 27 26 31 36 37 36 36 32 33 29 26 24 27 27 22 23 22 22 19 20 17 18 21 20 21 19 19 21 26 23 21 19 20
3 4 5 7 11 3 4 7 6 5 19 17 3 17 30 30 31 29 30 32 34 35 30 29 30 28 25 23 23 31 24 23 20 26 27 23 22 22 21 24 20 23 23 22 24 29 27 23 22
2 5 7 6 3 6 2 9 5 8 5 14 16 8 7 14 29 27 23 22 24 24 25 28 27 29 25 23 21 26 29 24 24 21 21 20 23 24 26 27 26 25 26 26 21 23 27 25 22
3 9 6 5 5 3 2 1 5 7 7 13 16 16 14 15 19 21 24 22 18 14 15 22 23 22 20 18 19 16 19 19 21 18 17 17 18 21 23 24 26 27 28 28 24 24 25 26 25
8 7 5 5 2 4 6 3 4 4 6 7 13 20 19 24 22 24 25 23 21 17 13 14 18 14 14 12 12 14 13 14 16 17 21 21 20 19 22 23 25 24 25 27 28 25 23 26 29
12 8 5 5 4 5 6 3 2 6 5 6 7 19 18 26 24 23 23 24 22 19 19 18 18 20 16 13 10 8 5 5 10 15 13 17 17 20 20 19 22 22 20 20 21 25 27 29 31
5 4 4 5 2 5 5 4 3 7 6 9 11 23 28 26 19 25 25 26 28 29 24 18 18 20 17 16 14 11 7 7 2 8 12 15 19 17 21 22 21 21 18 19 20 22 20 26 30
4 2 1 1 2 3 3 2 3 6 4 8 17 27 24 29 26 23 25 25 24 25 23 21 20 20 18 16 15 15 14 11 11 9 8 7 8 10 14 16 19 24 25 24 22 23 24 20 20
3 2 1 3 1 4 4 4 4 10 7 5 14 20 17 33 29 25 28 24 19 21 19 13 15 15 14 11 10 11 11 11 10 10 11 12 12 12 12 15 17 18 20 24 26 29 27 25 24
4 3 5 3 2 2 2 4 6 7 9 7 15 20 22 27 19 17 24 24 14 17 10 12 11 10 10 11 12 13 15 16 17 16 14 12 13 17 17 17 16 15 16 16 18 19 23 27 26
3 2 3 4 3 2 2 6 3 4 5 14 7 17 17 15 5 11 12 10 9 3 10 12 7 11 16 17 17 17 17 18 18 15 13 13 14 14 19 19 19 19 17 12 13 18 20 22 23
Wind_Direction
336 321 318 319 40 62 290 260 236 246 180 185 211 173 265 127 166 214 153 170 170 170 169 166 166 166 160 154 149 147 143 137 132 126 121 117 114 113 114 115 117 119 124 133 141 146 144 133 124
328 312 335 108 90 57 269 271 250 347 254 137 136 146 205 158 179 154 154 167 175 175 172 169 169 170 165 161 156 152 148 141 135 129 124 120 115 112 115 118 122 122 122 130 139 148 152 151 140
312 272 212 102 128 190 225 246 280 123 139 24 156 199 163 156 182 164 161 171 175 179 177 173 172 174 171 168 163 157 153 147 141 135 130 124 117 112 115 121 123 126 127 144 147 147 153 158 161
199 144 70 104 227 255 223 263 261 153 222 227 216 211 172 150 158 168 167 175 177 180 180 177 176 179 177 173 168 163 157 153 148 142 134 124 113 104 106 112 114 114 119 130 149 152 149 154 160
112 94 55 352 277 269 263 267 268 233 228 187 173 194 170 178 174 172 175 181 180 183 182 180 181 183 184 179 174 170 165 160 156 149 138 129 116 103 98 99 95 85 91 113 138 152 155 152 157
95 85 63 250 283 267 278 304 287 210 176 163 192 140 163 207 180 184 187 185 185 184 185 183 183 187 189 186 181 176 172 167 162 156 150 139 126 110 98 91 82 79 87 103 125 150 161 162 164
124 90 204 161 267 300 252 348 12 87 129 203 150 119 176 185 161 175 176 178 186 187 186 188 186 187 191 194 188 184 182 176 171 167 163 155 136 114 98 91 88 88 94 106 112 124 147 168 176
129 92 86 332 256 274 305 354 345 52 195 158 125 173 203 188 175 161 172 181 188 190 188 190 190 190 192 194 194 191 189 186 185 183 176 165 149 127 109 100 95 102 109 114 103 96 101 102 131
158 60 135 237 246 276 313 24 357 112 167 166 201 259 209 184 188 188 183 183 191 195 192 193 195 194 196 198 198 197 197 194 193 191 189 183 169 149 126 122 111 114 122 126 109 93 84 80 77
115 123 214 202 242 286 309 339 333 19 100 283 264 255 209 189 188 192 187 189 193 196 197 197 198 199 198 200 203 202 203 202 200 198 198 194 183 157 142 126 130 123 128 133 125 103 80 72 75
158 188 213 239 276 297 295 304 315 182 283 332 264 210 191 193 195 197 187 195 194 196 202 200 204 207 204 204 206 208 210 209 208 209 208 207 204 184 168 144 139 141 146 128 134 135 134 58 316
298 250 254 289 307 317 269 305 274 232 204 274 333 232 191 197 197 200 196 195 198 196 205 204 207 210 213 214 214 216 218 218 217 218 218 219 217 207 188 173 162 163 174 178 159 126 114 255 274
201 281 312 317 308 296 288 258 248 250 260 249 292 233 197 203 197 205 206 205 198 191 220 203 212 213 212 216 220 222 224 225 227 229 231 232 231 219 203 197 190 185 209 219 224 218 236 307 256
244 281 292 302 306 305 240 269 154 258 244 247 255 270 208 202 200 195 204 205 203 202 206 201 193 198 208 216 222 225 227 231 232 236 239 242 245 240 226 213 209 202 218 238 240 248 247 241 257
291 336 342 327 14 308 326 334 251 281 276 259 226 237 230 196 202 210 211 211 213 209 207 207 205 203 196 203 228 231 231 232 231 243 240 242 242 243 241 233 226 216 229 251 243 236 239 252 265
16 49 8 291 327 321 55 277 281 318 277 260 251 238 226 231 222 217 214 215 215 209 206 209 213 201 199 209 214 224 226 219 225 239 228 229 229 233 239 244 244 235 242 252 255 240 234 238 245
6 284 320 324 308 340 28 291 286 305 288 265 250 243 220 214 216 216 222 224 223 211 209 215 209 211 212 212 214 220 218 224 226 228 236 231 234 234 240 245 255 250 250 249 251 254 247 240 266
289 333 301 273 279 339 306 267 290 309 287 248 238 217 204 203 213 208 215 221 214 205 210 216 235 211 215 221 220 217 221 225 232 241 241 228 237 232 237 242 249 251 250 249 251 241 252 260 277
247 238 257 278 282 260 274 277 288 315 306 241 197 184 183 181 188 194 200 208 211 203 208 220 219 215 220 229 227 226 229 233 241 236 241 254 231 235 239 242 248 249 254 250 252 248 253 256 268
231 262 280 284 275 152 287 288 285 302 311 278 184 176 176 167 171 182 195 204 207 213 222 224 217 218 228 235 233 231 236 237 242 245 253 259 251 250 256 253 245 254 252 250 244 244 246 249 258
268 217 265 253 305 254 267 303 329 346 36 35 66 166 170 170 167 176 183 192 200 202 204 212 221 230 228 235 234 230 226 222 237 259 258 262 262 259 254 263 254 249 254 256 249 244 248 253 257
299 296 265 266 347 291 121 286 307 350 353 12 2 14 120 151 160 163 165 174 190 201 202 207 216 223 224 227 222 229 237 241 249 260 257 263 257 258 261 260 261 254 248 253 258 251 250 252 252
270 315 285 261 246 302 66 60 253 353 333 354 336 78 98 111 121 126 137 138 144 149 182 200 208 209 211 213 216 214 225 243 251 260 263 266 271 268 269 264 255 253 249 247 256 253 255 257 256
307 341 8 25 92 269 337 195 270 345 331 331 346 68 85 116 119 111 111 118 120 123 152 187 198 183 187 185 201 213 223 249 260 263 267 267 268 271 281 281 282 269 260 262 253 250 256 263 261
6 34 348 327 352 247 334 16 292 352 353 347 343 57 81 98 98 95 92 95 99 103 101 102 101 96 94 98 107 108 200 236 269 284 288 292 294 277 275 280 280 283 277 274 268 255 254 258 260
284 134 165 276 273 274 341 320 342 89 69 59 63 73 78 87 100 103 95 91 90 91 90 93 95 90 89 81 78 82 91 63 13 288 281 281 287 290 275 278 278 280 284 280 274 281 273 258 258
308 49 205 144 313 348 237 139 201 160 118 86 75 72 69 78 73 83 93 101 97 94 92 93 90 87 86 80 75 68 67 66 60 45 18 352 324 299 285 283 287 273 275 273 274 268 268 267 275
56 116 15 14 313 288 304 286 295 181 161 136 76 73 69 89 79 84 87 88 92 92 93 94 76 70 64 51 40 24 17 16 17 12 4 355 339 331 318 306 289 277 269 265 266 267 265 262 263
350 21 54 98 161 231 293 272 6 290 171 191 119 99 83 78 79 85 85 75 76 70 84 77 75 54 41 23 6 351 345 344 338 333 332 335 337 335 323 319 319 304 283 269 265 266 266 257 260
94 134 127 122 249 256 290 261 160 101 191 253 184 155 166 133 9 95 13 26 64 91 334 354 6 8 358 349 334 325 320 318 317 323 332 318 316 333 337 324 317 321 314 281 272 274 267 265 268